User: anonymous   Login
Location: Ergnies
(50.0854°N, 2.0375°E)
Time: 05:23:17
(UTC+00:00)
Language:

Cosmos 909 Rocket - Orbit

View from above orbital plane
View from above orbital plane
View from above satellite
View from above satellite

Ground track
Ground track

The orbit is defined by the following mean orbital elements,

1 10011U          26071.99663720 +.00000000 +00000-0 -10222-3 0 00005
2 10011  65.8627 278.7078 0692240  73.6524  71.3357 12.32266690    01
Epoch (UTC): 12 March 2026 23:55:09
Eccentricity: 0.0692240
inclination: 65.8627°
perigee height: 991 km
apogee height: 2088 km
right ascension of ascending node: 278.7078°
argument of perigee: 73.6524°
revolutions per day: 12.32266690
mean anomaly at epoch: 71.3357°

The dashed part of the orbit path shows where the satellite is in the earth's shadow,  

DLR